SCP
0 0 0 0 0 0 0 0 0 0 0 0 0 0 0 0 0 0 0 0 0 0 0 0 0 0 0 0 0 0 0 0 0 0 0 0 0 0 0 0 0 0 0 0 0 0 0 0 0 0 0 0 0 0
0 0 0 0 0 0 0 0 0 0 0 0 0 0 0 0 0 0 0 0 0 0 0 0 0 0 0 0 0 0 0 0 0 0 0 0 0 0 0 0 0 0 0 0 0 0 0 -0 0 0 0 0 0 0
0 0 0 0 0 0 0 0 0 0 0 0 0 0 0 0 0 0 0 0 0 0 0 0 0 0 0 0 0 0 0 0 0 0 0 0 0 0 0 0 0 0 0 0 0 0 0 0 0 -0 -0 0 -0 0
0 0 0 0 0 0 0 0 0 0 0 0 0 0 0 0 0 0 0 0 0 0 0 0 0 0 0 0 0 0 0 0 0 0 0 0 0 0 0 0 0 0 0 0 0 0 0 0 0 0 0 0 0 0
0 0 0 0 0 0 0 0 0 0 0 0 0 0 0 0 0 0 0 0 0 0 0 0 0 0 0 0 0 0 0 0 0 0 0 0 0 0 0 0 0 0 0 0 0 0 0 0 0 0 0 0 0 0
0 0 0 0 0 0 0 0 0 0 0 0 0 0 0 0 0 0 0 0 0 0 0 0 0 0 0 0 0 0 0 0 0 0 0 0 0 0 0 0 -0 0 0 0 -0 0 0 0 -0 0 -0 -0 0 0
0 0 0 0 0 0 0 0 0 0 0 0 0 0 0 0 0 0 0 0 0 0 0 0 0 0 0 0 0 0 0 0 0 0 0 0 0 0 0 0 -0 0 -0 -0 -0 0 0 -0 -0 -0 0 -0 -0 -0
0 0 0 0 0 0 0 0 0 0 0 0 0 0 0 0 0 0 0 0 0 0 0 0 0 0 0 0 0 0 0 0 0 0 0 0 0 0 0 0 0 0 -0 -0 -0 -0 0 0 0 0 0 0 -0 0
0 0 0 0 0 0 0 0 0 0 0 0 0 0 0 0 0 0 0 0 0 0 0 0 0 0 0 0 0 0 0 0 0 0 0 0 0 0 0 0 0 0 0 0 0 0 0 0 0 0 0 0 0 0
-0 -0 0 0 0 0 0 0 0 0 0 0 0 0 0 0 0 0 0 0 0 0 0 0 0 0 0 0 0 0 0 0 0 0 0 0 0 0 0 0 0 0 0 0 0 0 0 0 0 0 0 0 0 0
-0 -0 0 0 0 0 0 0 0 0 0 0 0 0 0 0 0 0 0 0 0 0 0 0 0 0 0 0 0 0 0 0 0 0 0 0 0 0 0 0 0 0 0 0 0 0 0 0 0 0 0 0 0 0
0 -0 0 0 0 0 0 0 0 0 0 0 0 0 0 0 0 0 0 0 0 0 0 0 0 0 0 0 0 0 0 0 0 0 0 0 0 0 0 0 0 0 -0 0 0 0 0 0 0 0 0 0 0 0
0 -0 0 0 0 0 0 0 0 0 0 0 0 0 0 0 0 0 0 0 0 0 0 0 0 0 0 0 0 0 0 0 0 0 0 0 0 0 0 0 0 0 0 0 0 0 0 0 0 0 0 0 0 0
0 0 -0 0 0 0 0 0 0 0 0 0 0 0 0 0 0 0 0 0 0 0 0 0 0 0 0 0 0 0 0 0 0 0 0 0 0 0 0 0 0 0 0 0 0 0 0 0 0 0 0 0 0 0
0 0 0 0 0 0 0 0 0 0 0 0 0 0 0 0 0 0 0 0 0 0 0 0 0 0 0 0 0 0 0 0 0 0 0 0 0 0 0 0 0 0 0 0 0 0 0 0 0 0 0 0 0 0
0 0 0 0 0 0 0 0 0 0 0 0 0 0 0 0 0 0 0 0 0 0 0 0 0 0 0 0 0 0 0 0 0 0 0 0 0 0 0 0 0 0 0 0 0 0 0 0 0 0 0 0 0 0
0 0 0 0 0 0 0 0 0 0 0 0 0 0 0 0 0 0 0 0 0 0 0 0 0 0 0 0 0 0 0 0 0 0 0 0 0 0 0 0 0 0 0 0 0 0 0 0 0 0 0 0 0 0
0 0 0 0 0 0 0 0 0 0 0 0 0 0 0 0 0 0 0 0 0 0 0 0 0 0 0 0 0 0 0 0 0 0 0 0 0 0 0 0 0 0 0 0 0 0 0 0 0 0 0 0 0 0
0 0 0 0 0 0 0 0 0 0 0 0 0 0 0 0 0 0 0 0 0 0 0 0 0 0 0 0 0 0 0 0 0 0 0 0 0 0 0 0 0 0 0 0 0 0 0 0 0 0 0 0 0 -0
0 0 0 0 0 0 0 0 0 0 0 0 0 0 0 0 0 0 0 0 0 0 0 0 0 0 0 0 0 0 0 0 0 0 0 0 0 0 0 0 0 0 0 0 0 0 0 0 0 0 0 0 0 0
0 0 0 0 0 0 0 0 0 0 0 0 0 0 0 0 0 0 0 0 0 0 0 0 0 0 0 0 0 0 0 0 0 0 0 0 0 0 0 0 0 0 0 0 0 0 0 0 0 0 0 0 0 0
0 0 0 0 0 0 0 0 0 0 0 0 0 0 0 0 0 0 0 0 0 0 0 0 0 0 0 0 0 0 0 0 0 0 0 0 0 0 0 0 0 0 0 0 0 0 0 0 0 0 0 0 0 0
0 0 0 0 0 0 0 0 0 0 0 0 0 0 0 0 0 0 0 0 0 0 0 0 0 0 0 0 0 0 0 0 0 0 0 0 0 0 0 0 0 0 0 0 0 0 0 0 0 0 0 0 0 0
0 0 0 0 0 0 0 0 0 0 0 0 0 0 0 0 0 0 0 0 0 0 0 0 0 0 0 0 0 0 0 0 0 0 0 0 0 0 0 0 0 0 0 0 0 0 0 0 0 0 0 0 0 0
0 0 0 0 0 0 0 0 0 0 0 0 0 0 0 0 0 0 0 0 0 0 0 0 0 0 0 0 0 0 0 0 0 0 0 0 0 0 0 0 0 0 0 0 0 0 0 0 0 0 0 0 0 0
0 0 0 0 0 0 0 0 0 0 0 0 0 0 0 0 0 0 0 0 0 0 0 0 0 0 0 0 0 0 0 0 0 0 0 0 0 0 0 0 0 0 0 0 0 0 0 0 0 0 0 0 0 0
0 0 0 0 0 0 0 0 0 0 0 0 0 0 0 0 0 0 0 0 0 0 0 0 0 0 0 0 0 0 0 0 0 0 0 0 0 0 0 0 0 0 0 0 0 0 0 0 0 0 0 0 0 0
0 0 0 0 0 0 0 0 0 0 0 0 0 0 0 0 0 0 0 0 0 0 0 0 0 0 0 0 0 0 0 0 0 0 0 0 0 0 0 0 0 0 0 0 0 0 0 0 0 0 0 0 0 0
0 0 -0 -0 -0 -0 0 0 0 0 0 0 0 0 0 0 0 0 0 0 0 0 0 0 0 0 0 0 0 0 0 0 0 0 0 0 0 0 0 0 0 0 0 0 0 0 0 0 0 0 0 0 0 0
0 0 0 0 0 0 0 -0 0 0 0 0 0 0 0 0 0 0 0 0 0 0 0 0 0 0 0 0 0 0 0 0 0 0 0 0 0 0 0 0 0 0 0 0 0 0 0 0 0 0 0 0 0 0
0 0 0 0 0 0 -0 -0 0 0 0 0 0 0 0 0 0 0 0 0 0 0 0 0 0 0 0 0 0 -0 -0 0 0 0 0 -0 -0 0 0 0 0 0 0 0 0 0 0 0 0 0 0 0 0 0
0 -0 0 0 -0 -0 0 0 0 0 0 0 0 0 0 0 0 0 -0 0 0 0 0 0 0 0 -0 0 0 0 0 0 0 0 0 0 0 0 0 0 0 0 0 0 0 0 0 0 0 0 0 0 0 0
0 0 -0 -0 -0 -0 0 -0 -0 -0 -0 0 0 0 -0 -0 -0 -0 0 -0 -0 -0 -0 -0 -0 -0 0 0 0 0 0 0 0 0 0 0 0 0 0 0 0 0 0 0 0 0 0 0 0 0 0 0 0 0
Wind_Speed_500mb
16 14 25 30 30 37 58 70 67 64 56 50 46 45 45 40 38 40 36 25 13 6 9 9 13 6 9 10 5 13 6 13 10 9 4 1 1 2 5 5 2 2 5 4 6 6 11 12 7 10 7 9 37 34
16 12 16 26 28 32 37 39 37 42 44 43 42 38 38 40 40 35 29 30 20 13 10 16 26 20 18 14 8 11 3 3 4 7 3 2 2 4 1 4 6 4 7 7 11 9 14 14 29 29 21 22 25 22
14 16 12 15 28 26 26 28 28 29 33 33 35 37 39 38 40 37 29 25 16 10 21 29 28 9 16 13 14 3 0 7 6 2 8 3 3 4 2 6 6 8 12 6 7 11 22 21 27 22 19 17 16 17
12 15 14 15 19 24 17 23 23 23 23 25 29 32 36 41 41 41 30 26 19 6 4 9 10 16 17 13 18 17 3 2 2 3 4 3 3 5 4 6 5 4 1 3 6 14 29 18 18 13 15 14 11 11
12 14 15 16 22 24 21 23 24 23 22 20 20 30 34 38 41 42 29 25 21 5 4 16 7 16 21 21 21 20 23 12 6 1 3 5 6 4 3 1 6 10 7 5 4 9 15 24 33 23 33 31 19 12
12 14 16 17 17 21 24 24 24 23 22 20 18 28 35 41 42 40 13 24 20 7 7 6 5 10 14 24 29 22 19 14 7 4 7 7 9 10 5 4 6 11 9 37 23 35 1 23 28 30 24 16 14 11
9 11 11 13 15 19 23 25 26 25 23 20 23 26 31 40 48 20 5 16 31 14 5 11 14 3 14 25 25 15 14 12 10 6 7 5 8 18 4 4 9 21 33 14 36 35 27 25 22 22 18 11 13 12
12 9 13 17 17 20 26 26 28 30 29 26 24 31 31 42 41 11 6 18 34 13 5 1 8 4 23 12 10 12 12 15 9 6 5 5 10 4 4 12 22 28 14 13 29 32 28 27 24 16 9 6 6 23
11 12 12 15 21 24 29 30 35 30 29 28 30 33 25 36 19 10 16 19 25 2 4 2 3 4 9 11 11 10 10 2 3 4 6 5 1 6 9 33 35 30 13 32 43 39 38 34 34 33 34 39 47 47
13 15 12 19 24 26 34 31 36 32 32 34 41 14 10 28 23 24 10 9 10 7 6 6 5 5 2 7 3 4 2 4 2 7 3 4 5 16 13 22 30 20 31 45 44 42 43 43 43 41 41 36 34 30
18 17 15 21 26 27 37 38 41 40 43 32 8 5 29 31 15 6 7 6 8 5 10 10 14 4 2 5 5 3 4 2 2 8 5 3 6 10 10 22 16 18 30 25 29 37 35 40 39 35 31 26 22 19
22 21 17 23 31 30 40 40 42 45 18 12 20 27 27 9 4 4 5 2 7 9 11 13 13 14 4 3 7 5 4 3 6 5 5 3 6 18 36 41 42 31 22 35 39 42 36 31 25 21 19 17 18 18
28 30 26 27 33 32 42 42 43 32 27 30 12 10 9 7 5 10 11 6 5 8 14 15 5 11 7 5 10 4 4 7 3 6 2 5 21 43 47 37 25 25 40 40 38 34 28 26 22 21 20 16 14 15
32 34 34 31 37 35 42 46 41 16 8 5 8 3 7 6 7 8 8 7 13 7 25 28 15 6 6 6 5 5 5 3 3 2 7 5 34 28 33 44 51 46 34 27 22 16 12 10 12 16 18 16 14 17
36 35 38 33 37 40 47 42 16 9 5 4 2 4 8 12 13 11 15 20 15 7 24 19 11 5 4 7 1 4 3 3 7 7 6 38 33 42 47 45 43 40 35 29 20 13 9 8 12 13 15 14 15 16
42 37 40 37 38 42 41 35 13 11 2 1 0 5 16 1 9 9 8 16 7 18 23 12 7 5 2 5 5 6 8 7 5 5 31 43 48 31 31 44 39 35 30 25 16 9 9 13 14 12 14 14 15 14
42 30 41 37 38 43 41 13 11 10 7 5 4 9 19 4 7 16 10 9 12 8 5 8 5 4 5 5 4 4 6 5 16 36 49 60 48 44 47 42 36 29 21 13 8 10 14 15 15 12 15 17 21 25
24 38 42 41 42 44 12 7 6 5 5 7 5 24 20 10 17 15 9 7 5 9 12 6 10 5 5 6 4 4 7 35 42 48 48 43 43 40 35 30 23 16 11 8 11 17 16 14 12 10 11 14 17 21
44 47 45 47 37 14 7 3 5 2 4 8 15 21 11 10 18 18 17 8 15 16 19 6 7 5 5 7 9 19 42 47 46 39 40 38 36 32 27 22 19 14 9 10 13 14 11 9 12 7 7 8 9 13
53 57 51 35 17 4 4 5 4 6 8 11 16 19 8 9 19 12 18 12 10 10 8 5 5 8 13 24 21 23 25 40 45 44 37 34 30 27 22 18 16 13 13 10 9 8 10 11 12 10 10 4 10 13
58 46 32 15 12 10 6 5 4 4 5 6 13 15 7 8 7 13 12 16 8 3 5 6 18 22 26 26 20 21 29 30 32 27 29 32 30 26 22 19 14 15 13 5 1 7 13 15 13 7 11 13 11 14
48 37 14 3 4 5 6 6 2 2 3 7 10 12 5 5 6 4 6 7 6 2 14 28 29 28 29 24 19 19 23 22 18 17 18 22 32 29 24 20 20 22 20 11 10 8 10 15 19 13 12 14 17 20
24 13 6 6 5 9 5 8 3 5 7 10 10 9 6 6 7 3 3 4 7 13 27 32 31 28 26 28 25 22 19 17 18 19 20 20 19 22 21 22 24 26 25 19 13 12 14 19 24 16 11 18 20 25
5 4 0 1 2 1 5 7 6 5 3 4 3 5 5 4 4 2 5 7 12 26 29 32 30 30 33 31 26 20 14 13 18 20 21 18 19 21 18 19 21 22 22 22 21 18 17 25 29 23 21 22 18 22
8 3 2 4 6 7 2 1 2 4 3 3 3 5 6 6 1 3 5 8 17 33 33 29 32 37 40 35 28 22 18 20 20 21 21 19 19 21 24 26 26 28 30 30 32 29 23 30 33 30 26 23 21 25
2 5 9 11 7 6 8 5 10 10 5 5 8 7 8 5 3 8 6 12 19 36 45 40 35 33 30 29 28 26 22 22 21 22 21 20 19 18 20 23 22 18 19 22 24 30 32 35 37 33 30 27 24 24
7 10 14 14 9 14 6 10 9 7 8 9 6 6 7 6 9 6 5 9 11 21 38 33 33 27 24 21 23 25 24 21 19 19 21 24 24 22 22 24 25 21 19 16 20 25 30 34 36 38 36 31 30 30
17 8 11 16 15 20 3 1 5 9 8 11 5 8 6 6 6 3 5 11 9 11 18 26 28 26 25 20 25 26 21 19 23 26 25 21 21 24 27 28 28 25 20 21 25 23 34 34 36 38 37 35 35 35
12 16 24 14 10 10 15 12 8 9 10 11 3 4 4 4 5 9 20 14 7 5 12 18 22 25 23 19 17 16 18 18 18 19 18 17 17 17 19 21 25 29 28 23 20 26 32 34 36 32 39 38 33 30
12 19 13 16 9 12 20 30 22 24 14 18 8 7 6 12 19 19 17 16 13 12 10 8 9 13 13 13 12 14 20 22 21 21 22 19 16 15 16 16 18 21 29 30 27 26 26 33 33 32 36 39 35 34
3 12 7 10 7 10 23 26 11 7 10 15 14 15 12 11 14 14 14 12 12 10 10 14 14 13 13 12 17 19 17 16 17 20 21 20 16 17 17 16 17 27 27 28 27 19 22 29 31 35 36 38 41 38
13 13 7 5 5 8 14 14 13 7 8 11 8 14 14 10 10 13 17 18 19 19 19 18 16 14 15 19 20 16 18 17 15 15 14 16 17 18 13 10 14 18 27 27 24 21 19 21 25 31 38 35 33 36
14 19 19 10 5 12 14 13 14 10 11 14 12 23 22 15 8 12 16 19 17 16 16 15 14 18 20 22 24 23 22 22 21 19 17 14 15 17 16 14 16 20 27 31 27 19 19 23 26 26 30 32 28 32
Wind_Direction_500mb
37 56 96 91 107 120 147 156 161 168 179 189 198 203 203 197 192 190 189 200 212 263 249 258 285 290 6 31 77 340 32 3 35 57 75 329 72 333 348 360 93 135 54 45 303 279 290 299 26 145 230 103 131 132
47 47 112 123 108 118 128 142 149 165 176 183 189 193 188 190 190 187 185 205 224 249 268 261 258 265 273 302 298 13 93 149 112 89 45 191 45 23 273 203 253 155 107 277 211 225 325 302 270 253 96 199 133 124
56 71 97 116 140 119 133 141 143 149 161 169 177 185 185 183 186 182 177 188 197 257 278 265 253 235 261 274 234 226 224 80 96 51 151 161 115 152 5 279 301 189 137 207 276 319 350 42 93 147 187 144 158 149
86 85 113 115 134 152 139 148 151 152 155 164 172 176 177 180 180 175 168 184 194 202 258 248 200 197 212 177 194 199 238 66 358 273 138 136 215 225 153 246 243 276 28 108 14 17 360 33 34 48 120 136 154 166
92 103 116 126 143 148 163 165 161 162 160 165 167 171 172 176 175 170 166 180 191 202 257 292 258 180 190 195 202 218 228 245 293 310 116 212 188 146 289 205 241 187 200 141 89 62 301 309 27 40 41 40 43 57
106 109 119 136 150 153 162 168 165 167 165 161 158 166 174 170 169 163 181 199 195 190 307 318 285 211 182 209 217 214 221 214 226 264 235 219 192 173 170 252 270 205 207 138 155 163 256 353 12 30 19 14 359 347
120 144 134 141 149 169 169 168 170 168 163 157 158 159 165 170 164 170 179 179 187 191 276 316 318 227 198 178 187 207 218 214 220 231 241 238 202 178 135 231 225 163 174 181 167 165 170 184 180 297 289 325 329 344
130 122 160 150 154 155 166 166 163 162 157 155 153 152 158 161 160 131 167 183 178 186 270 248 274 333 176 178 197 211 195 197 224 252 241 210 129 166 250 255 175 180 200 219 205 196 206 191 189 150 127 92 46 75
156 128 128 175 157 160 165 162 156 155 156 150 155 154 144 168 161 127 120 148 172 220 275 223 197 207 159 178 184 178 192 131 214 225 249 140 5 216 244 178 169 163 177 130 131 135 140 132 117 110 106 95 93 82
186 149 171 165 165 158 161 153 156 150 150 149 137 133 135 169 135 128 121 147 173 241 240 241 245 262 31 171 118 134 182 164 152 251 159 96 252 310 324 192 167 140 142 143 132 123 124 116 111 102 91 87 84 80
199 172 171 157 161 162 159 157 157 152 153 143 110 90 141 152 145 166 136 155 189 248 218 228 224 255 69 120 153 100 174 56 102 265 133 14 331 329 123 145 121 128 150 148 143 137 127 120 112 106 94 80 64 47
203 192 177 161 162 159 159 160 158 162 159 125 114 122 128 154 131 122 192 177 199 219 202 189 209 201 153 121 105 25 106 43 238 322 83 55 270 125 122 117 116 111 112 126 128 123 118 109 97 85 73 55 44 40
197 187 174 167 165 158 162 160 168 170 129 127 113 154 163 155 45 190 187 228 227 208 185 176 161 168 133 102 79 77 92 226 332 43 73 188 173 140 137 150 171 159 139 132 126 122 117 103 82 59 57 53 41 38
184 179 173 166 169 160 165 168 171 155 131 134 154 112 173 192 231 200 198 200 224 247 186 167 147 148 124 79 130 108 237 77 61 171 219 224 166 151 153 153 149 148 146 138 127 115 93 67 46 27 19 29 34 29
172 169 164 164 170 167 169 167 158 113 84 83 166 185 216 248 260 261 262 258 271 279 163 134 88 118 51 106 86 90 95 247 215 216 209 166 155 151 149 156 154 153 151 146 146 136 101 60 47 57 54 55 28 21
154 156 169 166 168 165 170 166 114 54 67 11 233 339 333 298 321 334 230 251 264 162 133 109 100 76 79 120 115 202 165 223 237 205 148 153 141 141 177 161 158 155 151 141 131 112 96 84 75 87 94 66 47 63
143 159 161 162 160 156 169 137 43 17 11 27 6 13 359 325 305 357 30 61 138 118 106 112 92 156 120 92 167 201 199 227 159 153 155 159 171 175 163 153 145 142 134 126 126 130 124 105 86 106 112 84 77 95
137 153 152 151 149 162 136 67 57 25 11 12 30 354 359 7 11 38 51 158 140 133 141 147 129 78 118 143 247 214 129 143 141 146 155 163 162 156 154 147 145 140 120 103 136 142 140 143 116 95 123 117 114 105
142 141 139 135 134 122 113 96 32 293 352 359 358 7 7 18 22 22 39 83 138 134 123 82 85 138 194 206 183 144 149 153 154 155 157 159 160 159 156 155 154 139 113 118 158 164 164 149 148 133 145 117 146 130
128 129 127 128 125 78 56 80 93 48 26 349 359 349 1 7 12 22 43 50 89 105 68 79 183 182 168 164 160 149 151 155 152 146 150 160 168 173 174 172 170 156 144 115 152 187 199 170 157 165 184 229 175 151
128 131 138 102 64 62 66 46 54 24 353 351 348 346 337 348 16 37 32 20 41 80 121 139 143 144 144 149 146 162 161 166 170 168 166 175 175 181 187 189 196 194 169 148 256 195 186 197 169 188 179 156 154 158
133 136 145 69 74 89 92 51 26 323 307 321 344 341 331 1 331 16 46 35 312 244 153 155 149 147 158 160 159 160 166 169 186 199 207 197 191 192 200 208 211 212 215 237 273 248 220 207 186 167 189 198 181 161
119 85 41 28 357 32 53 1 31 30 28 344 348 343 330 336 29 322 359 242 249 197 172 172 174 169 165 167 169 167 169 189 199 196 186 187 194 207 218 228 230 226 226 227 252 240 227 210 192 189 205 184 181 178
11 343 4 168 187 75 348 8 5 347 314 329 336 301 288 272 333 303 254 237 203 187 183 182 186 179 176 174 183 189 194 210 208 198 198 208 210 215 224 232 231 228 232 248 257 242 230 210 192 193 196 181 189 186
307 265 233 265 182 137 124 357 287 338 303 258 262 271 252 199 159 250 237 257 206 192 190 191 189 191 182 181 188 194 197 189 188 187 193 205 222 239 243 242 245 250 251 249 246 240 223 201 200 196 197 198 203 190
310 233 186 205 187 186 172 209 190 201 221 240 231 252 192 165 221 244 234 222 208 202 198 196 195 192 194 199 199 198 206 207 210 217 225 243 257 267 256 245 258 261 257 250 238 218 211 202 201 198 199 202 197 194
241 254 222 214 198 176 219 265 191 156 195 212 226 199 178 217 231 239 199 188 206 205 204 205 204 207 204 203 210 208 211 221 238 252 264 275 273 253 246 254 262 267 252 233 210 206 201 200 200 199 204 199 202 205
232 245 189 204 198 200 187 189 260 214 213 205 210 197 211 214 246 144 145 145 155 167 171 189 206 215 231 220 203 205 216 245 261 268 266 261 264 259 251 250 252 248 237 233 223 215 203 202 206 208 211 215 211 208
235 225 195 200 197 171 199 211 249 240 216 187 210 214 235 267 180 163 149 145 136 166 168 168 168 173 176 189 205 235 254 264 274 264 258 264 263 263 252 246 245 237 233 225 209 210 207 206 213 217 217 219 219 215
244 208 195 181 202 206 207 201 232 222 227 217 219 174 135 131 137 150 157 160 162 174 171 184 196 202 211 218 237 261 269 265 263 254 253 260 266 270 245 268 246 225 214 213 209 208 217 220 221 222 219 220 218 211
154 167 182 205 250 252 216 213 220 183 188 191 191 170 139 144 164 178 186 188 202 210 213 212 209 224 232 258 293 294 277 258 260 263 260 252 254 247 267 248 246 214 208 208 203 220 224 221 225 219 214 214 211 212
216 205 169 217 256 150 156 174 178 161 158 154 146 169 168 179 201 207 212 206 205 215 224 239 252 267 270 276 273 284 274 258 253 247 253 255 245 241 236 211 219 206 205 207 198 222 227 218 214 212 211 211 210 216
198 208 217 252 227 179 177 178 186 168 172 192 195 198 197 191 200 195 201 212 222 232 243 255 256 259 266 268 261 272 279 257 241 237 235 248 231 224 218 219 233 229 226 224 205 214 216 220 210 212 216 207 224 231
Wind_Speed_850mb
16 14 25 30 30 37 58 70 67 64 56 50 46 45 45 40 38 40 36 25 13 6 9 9 13 6 9 10 5 13 6 13 10 9 4 1 1 2 5 5 2 2 5 4 6 6 11 12 7 10 7 9 37 34
16 12 16 26 28 32 37 39 37 42 44 43 42 38 38 40 40 35 29 30 20 13 10 16 26 20 18 14 8 11 3 3 4 7 3 2 2 4 1 4 6 4 7 7 11 9 14 14 29 29 21 22 25 22
14 16 12 15 28 26 26 28 28 29 33 33 35 37 39 38 40 37 29 25 16 10 21 29 28 9 16 13 14 3 0 7 6 2 8 3 3 4 2 6 6 8 12 6 7 11 22 21 27 22 19 17 16 17
12 15 14 15 19 24 17 23 23 23 23 25 29 32 36 41 41 41 30 26 19 6 4 9 10 16 17 13 18 17 3 2 2 3 4 3 3 5 4 6 5 4 1 3 6 14 29 18 18 13 15 14 11 11
12 14 15 16 22 24 21 23 24 23 22 20 20 30 34 38 41 42 29 25 21 5 4 16 7 16 21 21 21 20 23 12 6 1 3 5 6 4 3 1 6 10 7 5 4 9 15 24 33 23 33 31 19 12
12 14 16 17 17 21 24 24 24 23 22 20 18 28 35 41 42 40 13 24 20 7 7 6 5 10 14 24 29 22 19 14 7 4 7 7 9 10 5 4 6 11 9 37 23 35 1 23 28 30 24 16 14 11
9 11 11 13 15 19 23 25 26 25 23 20 23 26 31 40 48 20 5 16 31 14 5 11 14 3 14 25 25 15 14 12 10 6 7 5 8 18 4 4 9 21 33 14 36 35 27 25 22 22 18 11 13 12
12 9 13 17 17 20 26 26 28 30 29 26 24 31 31 42 41 11 6 18 34 13 5 1 8 4 23 12 10 12 12 15 9 6 5 5 10 4 4 12 22 28 14 13 29 32 28 27 24 16 9 6 6 23
11 12 12 15 21 24 29 30 35 30 29 28 30 33 25 36 19 10 16 19 25 2 4 2 3 4 9 11 11 10 10 2 3 4 6 5 1 6 9 33 35 30 13 32 43 39 38 34 34 33 34 39 47 47
13 15 12 19 24 26 34 31 36 32 32 34 41 14 10 28 23 24 10 9 10 7 6 6 5 5 2 7 3 4 2 4 2 7 3 4 5 16 13 22 30 20 31 45 44 42 43 43 43 41 41 36 34 30
18 17 15 21 26 27 37 38 41 40 43 32 8 5 29 31 15 6 7 6 8 5 10 10 14 4 2 5 5 3 4 2 2 8 5 3 6 10 10 22 16 18 30 25 29 37 35 40 39 35 31 26 22 19
22 21 17 23 31 30 40 40 42 45 18 12 20 27 27 9 4 4 5 2 7 9 11 13 13 14 4 3 7 5 4 3 6 5 5 3 6 18 36 41 42 31 22 35 39 42 36 31 25 21 19 17 18 18
28 30 26 27 33 32 42 42 43 32 27 30 12 10 9 7 5 10 11 6 5 8 14 15 5 11 7 5 10 4 4 7 3 6 2 5 21 43 47 37 25 25 40 40 38 34 28 26 22 21 20 16 14 15
32 34 34 31 37 35 42 46 41 16 8 5 8 3 7 6 7 8 8 7 13 7 25 28 15 6 6 6 5 5 5 3 3 2 7 5 34 28 33 44 51 46 34 27 22 16 12 10 12 16 18 16 14 17
36 35 38 33 37 40 47 42 16 9 5 4 2 4 8 12 13 11 15 20 15 7 24 19 11 5 4 7 1 4 3 3 7 7 6 38 33 42 47 45 43 40 35 29 20 13 9 8 12 13 15 14 15 16
42 37 40 37 38 42 41 35 13 11 2 1 0 5 16 1 9 9 8 16 7 18 23 12 7 5 2 5 5 6 8 7 5 5 31 43 48 31 31 44 39 35 30 25 16 9 9 13 14 12 14 14 15 14
42 30 41 37 38 43 41 13 11 10 7 5 4 9 19 4 7 16 10 9 12 8 5 8 5 4 5 5 4 4 6 5 16 36 49 60 48 44 47 42 36 29 21 13 8 10 14 15 15 12 15 17 21 25
24 38 42 41 42 44 12 7 6 5 5 7 5 24 20 10 17 15 9 7 5 9 12 6 10 5 5 6 4 4 7 35 42 48 48 43 43 40 35 30 23 16 11 8 11 17 16 14 12 10 11 14 17 21
44 47 45 47 37 14 7 3 5 2 4 8 15 21 11 10 18 18 17 8 15 16 19 6 7 5 5 7 9 19 42 47 46 39 40 38 36 32 27 22 19 14 9 10 13 14 11 9 12 7 7 8 9 13
53 57 51 35 17 4 4 5 4 6 8 11 16 19 8 9 19 12 18 12 10 10 8 5 5 8 13 24 21 23 25 40 45 44 37 34 30 27 22 18 16 13 13 10 9 8 10 11 12 10 10 4 10 13
58 46 32 15 12 10 6 5 4 4 5 6 13 15 7 8 7 13 12 16 8 3 5 6 18 22 26 26 20 21 29 30 32 27 29 32 30 26 22 19 14 15 13 5 1 7 13 15 13 7 11 13 11 14
48 37 14 3 4 5 6 6 2 2 3 7 10 12 5 5 6 4 6 7 6 2 14 28 29 28 29 24 19 19 23 22 18 17 18 22 32 29 24 20 20 22 20 11 10 8 10 15 19 13 12 14 17 20
24 13 6 6 5 9 5 8 3 5 7 10 10 9 6 6 7 3 3 4 7 13 27 32 31 28 26 28 25 22 19 17 18 19 20 20 19 22 21 22 24 26 25 19 13 12 14 19 24 16 11 18 20 25
5 4 0 1 2 1 5 7 6 5 3 4 3 5 5 4 4 2 5 7 12 26 29 32 30 30 33 31 26 20 14 13 18 20 21 18 19 21 18 19 21 22 22 22 21 18 17 25 29 23 21 22 18 22
8 3 2 4 6 7 2 1 2 4 3 3 3 5 6 6 1 3 5 8 17 33 33 29 32 37 40 35 28 22 18 20 20 21 21 19 19 21 24 26 26 28 30 30 32 29 23 30 33 30 26 23 21 25
2 5 9 11 7 6 8 5 10 10 5 5 8 7 8 5 3 8 6 12 19 36 45 40 35 33 30 29 28 26 22 22 21 22 21 20 19 18 20 23 22 18 19 22 24 30 32 35 37 33 30 27 24 24
7 10 14 14 9 14 6 10 9 7 8 9 6 6 7 6 9 6 5 9 11 21 38 33 33 27 24 21 23 25 24 21 19 19 21 24 24 22 22 24 25 21 19 16 20 25 30 34 36 38 36 31 30 30
17 8 11 16 15 20 3 1 5 9 8 11 5 8 6 6 6 3 5 11 9 11 18 26 28 26 25 20 25 26 21 19 23 26 25 21 21 24 27 28 28 25 20 21 25 23 34 34 36 38 37 35 35 35
12 16 24 14 10 10 15 12 8 9 10 11 3 4 4 4 5 9 20 14 7 5 12 18 22 25 23 19 17 16 18 18 18 19 18 17 17 17 19 21 25 29 28 23 20 26 32 34 36 32 39 38 33 30
12 19 13 16 9 12 20 30 22 24 14 18 8 7 6 12 19 19 17 16 13 12 10 8 9 13 13 13 12 14 20 22 21 21 22 19 16 15 16 16 18 21 29 30 27 26 26 33 33 32 36 39 35 34
3 12 7 10 7 10 23 26 11 7 10 15 14 15 12 11 14 14 14 12 12 10 10 14 14 13 13 12 17 19 17 16 17 20 21 20 16 17 17 16 17 27 27 28 27 19 22 29 31 35 36 38 41 38
13 13 7 5 5 8 14 14 13 7 8 11 8 14 14 10 10 13 17 18 19 19 19 18 16 14 15 19 20 16 18 17 15 15 14 16 17 18 13 10 14 18 27 27 24 21 19 21 25 31 38 35 33 36
14 19 19 10 5 12 14 13 14 10 11 14 12 23 22 15 8 12 16 19 17 16 16 15 14 18 20 22 24 23 22 22 21 19 17 14 15 17 16 14 16 20 27 31 27 19 19 23 26 26 30 32 28 32
Wind_Direction_850mb
37 56 96 91 107 120 147 156 161 168 179 189 198 203 203 197 192 190 189 200 212 263 249 258 285 290 6 31 77 340 32 3 35 57 75 329 72 333 348 360 93 135 54 45 303 279 290 299 26 145 230 103 131 132
47 47 112 123 108 118 128 142 149 165 176 183 189 193 188 190 190 187 185 205 224 249 268 261 258 265 273 302 298 13 93 149 112 89 45 191 45 23 273 203 253 155 107 277 211 225 325 302 270 253 96 199 133 124
56 71 97 116 140 119 133 141 143 149 161 169 177 185 185 183 186 182 177 188 197 257 278 265 253 235 261 274 234 226 224 80 96 51 151 161 115 152 5 279 301 189 137 207 276 319 350 42 93 147 187 144 158 149
86 85 113 115 134 152 139 148 151 152 155 164 172 176 177 180 180 175 168 184 194 202 258 248 200 197 212 177 194 199 238 66 358 273 138 136 215 225 153 246 243 276 28 108 14 17 360 33 34 48 120 136 154 166
92 103 116 126 143 148 163 165 161 162 160 165 167 171 172 176 175 170 166 180 191 202 257 292 258 180 190 195 202 218 228 245 293 310 116 212 188 146 289 205 241 187 200 141 89 62 301 309 27 40 41 40 43 57
106 109 119 136 150 153 162 168 165 167 165 161 158 166 174 170 169 163 181 199 195 190 307 318 285 211 182 209 217 214 221 214 226 264 235 219 192 173 170 252 270 205 207 138 155 163 256 353 12 30 19 14 359 347
120 144 134 141 149 169 169 168 170 168 163 157 158 159 165 170 164 170 179 179 187 191 276 316 318 227 198 178 187 207 218 214 220 231 241 238 202 178 135 231 225 163 174 181 167 165 170 184 180 297 289 325 329 344
130 122 160 150 154 155 166 166 163 162 157 155 153 152 158 161 160 131 167 183 178 186 270 248 274 333 176 178 197 211 195 197 224 252 241 210 129 166 250 255 175 180 200 219 205 196 206 191 189 150 127 92 46 75
156 128 128 175 157 160 165 162 156 155 156 150 155 154 144 168 161 127 120 148 172 220 275 223 197 207 159 178 184 178 192 131 214 225 249 140 5 216 244 178 169 163 177 130 131 135 140 132 117 110 106 95 93 82
186 149 171 165 165 158 161 153 156 150 150 149 137 133 135 169 135 128 121 147 173 241 240 241 245 262 31 171 118 134 182 164 152 251 159 96 252 310 324 192 167 140 142 143 132 123 124 116 111 102 91 87 84 80
199 172 171 157 161 162 159 157 157 152 153 143 110 90 141 152 145 166 136 155 189 248 218 228 224 255 69 120 153 100 174 56 102 265 133 14 331 329 123 145 121 128 150 148 143 137 127 120 112 106 94 80 64 47
203 192 177 161 162 159 159 160 158 162 159 125 114 122 128 154 131 122 192 177 199 219 202 189 209 201 153 121 105 25 106 43 238 322 83 55 270 125 122 117 116 111 112 126 128 123 118 109 97 85 73 55 44 40
197 187 174 167 165 158 162 160 168 170 129 127 113 154 163 155 45 190 187 228 227 208 185 176 161 168 133 102 79 77 92 226 332 43 73 188 173 140 137 150 171 159 139 132 126 122 117 103 82 59 57 53 41 38
184 179 173 166 169 160 165 168 171 155 131 134 154 112 173 192 231 200 198 200 224 247 186 167 147 148 124 79 130 108 237 77 61 171 219 224 166 151 153 153 149 148 146 138 127 115 93 67 46 27 19 29 34 29
172 169 164 164 170 167 169 167 158 113 84 83 166 185 216 248 260 261 262 258 271 279 163 134 88 118 51 106 86 90 95 247 215 216 209 166 155 151 149 156 154 153 151 146 146 136 101 60 47 57 54 55 28 21
154 156 169 166 168 165 170 166 114 54 67 11 233 339 333 298 321 334 230 251 264 162 133 109 100 76 79 120 115 202 165 223 237 205 148 153 141 141 177 161 158 155 151 141 131 112 96 84 75 87 94 66 47 63
143 159 161 162 160 156 169 137 43 17 11 27 6 13 359 325 305 357 30 61 138 118 106 112 92 156 120 92 167 201 199 227 159 153 155 159 171 175 163 153 145 142 134 126 126 130 124 105 86 106 112 84 77 95
137 153 152 151 149 162 136 67 57 25 11 12 30 354 359 7 11 38 51 158 140 133 141 147 129 78 118 143 247 214 129 143 141 146 155 163 162 156 154 147 145 140 120 103 136 142 140 143 116 95 123 117 114 105
142 141 139 135 134 122 113 96 32 293 352 359 358 7 7 18 22 22 39 83 138 134 123 82 85 138 194 206 183 144 149 153 154 155 157 159 160 159 156 155 154 139 113 118 158 164 164 149 148 133 145 117 146 130
128 129 127 128 125 78 56 80 93 48 26 349 359 349 1 7 12 22 43 50 89 105 68 79 183 182 168 164 160 149 151 155 152 146 150 160 168 173 174 172 170 156 144 115 152 187 199 170 157 165 184 229 175 151
128 131 138 102 64 62 66 46 54 24 353 351 348 346 337 348 16 37 32 20 41 80 121 139 143 144 144 149 146 162 161 166 170 168 166 175 175 181 187 189 196 194 169 148 256 195 186 197 169 188 179 156 154 158
133 136 145 69 74 89 92 51 26 323 307 321 344 341 331 1 331 16 46 35 312 244 153 155 149 147 158 160 159 160 166 169 186 199 207 197 191 192 200 208 211 212 215 237 273 248 220 207 186 167 189 198 181 161
119 85 41 28 357 32 53 1 31 30 28 344 348 343 330 336 29 322 359 242 249 197 172 172 174 169 165 167 169 167 169 189 199 196 186 187 194 207 218 228 230 226 226 227 252 240 227 210 192 189 205 184 181 178
11 343 4 168 187 75 348 8 5 347 314 329 336 301 288 272 333 303 254 237 203 187 183 182 186 179 176 174 183 189 194 210 208 198 198 208 210 215 224 232 231 228 232 248 257 242 230 210 192 193 196 181 189 186
307 265 233 265 182 137 124 357 287 338 303 258 262 271 252 199 159 250 237 257 206 192 190 191 189 191 182 181 188 194 197 189 188 187 193 205 222 239 243 242 245 250 251 249 246 240 223 201 200 196 197 198 203 190
310 233 186 205 187 186 172 209 190 201 221 240 231 252 192 165 221 244 234 222 208 202 198 196 195 192 194 199 199 198 206 207 210 217 225 243 257 267 256 245 258 261 257 250 238 218 211 202 201 198 199 202 197 194
241 254 222 214 198 176 219 265 191 156 195 212 226 199 178 217 231 239 199 188 206 205 204 205 204 207 204 203 210 208 211 221 238 252 264 275 273 253 246 254 262 267 252 233 210 206 201 200 200 199 204 199 202 205
232 245 189 204 198 200 187 189 260 214 213 205 210 197 211 214 246 144 145 145 155 167 171 189 206 215 231 220 203 205 216 245 261 268 266 261 264 259 251 250 252 248 237 233 223 215 203 202 206 208 211 215 211 208
235 225 195 200 197 171 199 211 249 240 216 187 210 214 235 267 180 163 149 145 136 166 168 168 168 173 176 189 205 235 254 264 274 264 258 264 263 263 252 246 245 237 233 225 209 210 207 206 213 217 217 219 219 215
244 208 195 181 202 206 207 201 232 222 227 217 219 174 135 131 137 150 157 160 162 174 171 184 196 202 211 218 237 261 269 265 263 254 253 260 266 270 245 268 246 225 214 213 209 208 217 220 221 222 219 220 218 211
154 167 182 205 250 252 216 213 220 183 188 191 191 170 139 144 164 178 186 188 202 210 213 212 209 224 232 258 293 294 277 258 260 263 260 252 254 247 267 248 246 214 208 208 203 220 224 221 225 219 214 214 211 212
216 205 169 217 256 150 156 174 178 161 158 154 146 169 168 179 201 207 212 206 205 215 224 239 252 267 270 276 273 284 274 258 253 247 253 255 245 241 236 211 219 206 205 207 198 222 227 218 214 212 211 211 210 216
198 208 217 252 227 179 177 178 186 168 172 192 195 198 197 191 200 195 201 212 222 232 243 255 256 259 266 268 261 272 279 257 241 237 235 248 231 224 218 219 233 229 226 224 205 214 216 220 210 212 216 207 224 231